When you browse on this site, cookies collect data to enhance your experience and personalize the content and advertising you see.
Visit our Privacy Policy to learn more. By continuing to use the site, you agree to this use of cookies and data.
  • In Österreich
  • Länderverzeichnis
  • Für 7 Tage
  • Wassertemperatur
  • Satellitenkarten
  • Wetterkarte
  • News
  • Widgets
  • user-avatar
    Anmelden

    Stündliche Wetter Gedshon

    Heute, 20 Mai, Montag

    Zeit Temperatur Niederschläge Wind Luftdruck Luftfeuchtigkeit
    00:00 +18°C° 0.1 mm 1 m/S 739 mmHg 96%
    01:00 +18°C° 0.1 mm 1 m/S 739 mmHg 96%
    02:00 +19°C° 0 mm 1 m/S 738 mmHg 96%
    03:00 +19°C° 0.6 mm 1 m/S 738 mmHg 96%
    04:00 +18°C° 0.6 mm 2 m/S 738 mmHg 97%
    05:00 +18°C° 0.6 mm 2 m/S 739 mmHg 97%
    06:00 +18°C° 0 mm 3 m/S 739 mmHg 90%
    07:00 +18°C° 0 mm 3 m/S 739 mmHg 84%
    08:00 +17°C° 0 mm 3 m/S 739 mmHg 68%
    09:00 +18°C° 0 mm 4 m/S 739 mmHg 59%
    10:00 +19°C° 0 mm 4 m/S 739 mmHg 51%
    11:00 +20°C° 0 mm 5 m/S 739 mmHg 42%
    12:00 +20°C° 0 mm 5 m/S 739 mmHg 41%
    13:00 +20°C° 0 mm 6 m/S 739 mmHg 40%
    14:00 +19°C° 0 mm 6 m/S 739 mmHg 38%
    15:00 +17°C° 0 mm 6 m/S 739 mmHg 42%
    16:00 +16°C° 0 mm 5 m/S 739 mmHg 46%
    17:00 +15°C° 0 mm 5 m/S 740 mmHg 50%
    18:00 +13°C° 0 mm 4 m/S 740 mmHg 55%
    19:00 +12°C° 0 mm 3 m/S 740 mmHg 60%
    20:00 +10°C° 0 mm 2 m/S 740 mmHg 69%
    21:00 +9°C° 0 mm 2 m/S 741 mmHg 71%
    22:00 +9°C° 0 mm 2 m/S 741 mmHg 73%
    23:00 +9°C° 0 mm 2 m/S 741 mmHg 75%

    Morgen, 21 Mai, Dienstag

    Zeit Temperatur Niederschläge Wind Luftdruck Luftfeuchtigkeit
    00:00 +9°C° 0 mm 2 m/S 741 mmHg 77%
    01:00 +8°C° 0 mm 2 m/S 741 mmHg 79%
    02:00 +8°C° 0 mm 2 m/S 741 mmHg 81%
    03:00 +8°C° 0 mm 2 m/S 741 mmHg 81%
    04:00 +8°C° 0 mm 2 m/S 741 mmHg 82%
    05:00 +8°C° 0 mm 2 m/S 741 mmHg 82%
    06:00 +12°C° 0 mm 2 m/S 741 mmHg 74%
    07:00 +14°C° 0 mm 3 m/S 741 mmHg 65%
    08:00 +18°C° 0 mm 3 m/S 740 mmHg 56%
    09:00 +20°C° 0 mm 4 m/S 740 mmHg 48%
    10:00 +21°C° 0 mm 5 m/S 740 mmHg 40%
    11:00 +23°C° 0 mm 5 m/S 740 mmHg 32%
    12:00 +23°C° 0 mm 6 m/S 740 mmHg 30%
    13:00 +23°C° 0 mm 6 m/S 739 mmHg 29%
    14:00 +24°C° 0 mm 6 m/S 739 mmHg 28%
    15:00 +23°C° 0 mm 6 m/S 739 mmHg 32%
    16:00 +21°C° 0 mm 5 m/S 739 mmHg 37%
    17:00 +20°C° 0 mm 5 m/S 739 mmHg 41%
    18:00 +18°C° 0 mm 4 m/S 739 mmHg 51%
    19:00 +16°C° 0 mm 3 m/S 739 mmHg 62%
    20:00 +13°C° 0 mm 2 m/S 739 mmHg 72%
    21:00 +13°C° 0 mm 2 m/S 740 mmHg 76%
    22:00 +12°C° 0 mm 2 m/S 740 mmHg 81%
    23:00 +12°C° 0 mm 2 m/S 740 mmHg 85%

    übermorgen, 22 Mai, Mittwoch

    Zeit Temperatur Niederschläge Wind Luftdruck Luftfeuchtigkeit
    00:00 +10°C° 0 mm 2 m/S 740 mmHg 86%
    01:00 +10°C° 0 mm 2 m/S 740 mmHg 86%
    02:00 +10°C° 0 mm 2 m/S 740 mmHg 86%
    03:00 +10°C° 0 mm 2 m/S 740 mmHg 84%
    04:00 +10°C° 0 mm 2 m/S 740 mmHg 83%
    05:00 +10°C° 0 mm 2 m/S 740 mmHg 81%
    06:00 +14°C° 0 mm 2 m/S 740 mmHg 71%
    07:00 +17°C° 0 mm 3 m/S 740 mmHg 62%
    08:00 +20°C° 0 mm 4 m/S 740 mmHg 53%
    09:00 +22°C° 0 mm 4 m/S 740 mmHg 48%
    10:00 +23°C° 0 mm 5 m/S 740 mmHg 44%
    11:00 +26°C° 0 mm 5 m/S 740 mmHg 40%
    12:00 +26°C° 0 mm 5 m/S 739 mmHg 39%
    13:00 +27°C° 0 mm 5 m/S 739 mmHg 39%
    14:00 +27°C° 0 mm 5 m/S 739 mmHg 38%
    15:00 +26°C° 0 mm 4 m/S 739 mmHg 44%
    16:00 +25°C° 0 mm 3 m/S 739 mmHg 49%
    17:00 +24°C° 0 mm 3 m/S 739 mmHg 55%
    18:00 +20°C° 0 mm 2 m/S 739 mmHg 64%
    19:00 +18°C° 0 mm 2 m/S 740 mmHg 74%
    20:00 +16°C° 0 mm 2 m/S 740 mmHg 83%
    21:00 +15°C° 0 mm 1 m/S 740 mmHg 85%
    22:00 +14°C° 0 mm 1 m/S 741 mmHg 87%
    23:00 +14°C° 0 mm 1 m/S 741 mmHg 90%

    23 Mai, Donnerstag

    Zeit Temperatur Niederschläge Wind Luftdruck Luftfeuchtigkeit
    00:00 +13°C° 0 mm 1 m/S 741 mmHg 90%
    01:00 +13°C° 0 mm 1 m/S 741 mmHg 90%
    02:00 +12°C° 0 mm 1 m/S 742 mmHg 90%
    03:00 +12°C° 0 mm 1 m/S 742 mmHg 88%
    04:00 +12°C° 0 mm 1 m/S 742 mmHg 87%
    05:00 +11°C° 0 mm 0 m/S 742 mmHg 85%
    06:00 +14°C° 0 mm 0 m/S 743 mmHg 74%
    07:00 +18°C° 0 mm 0 m/S 743 mmHg 62%
    08:00 +21°C° 0 mm 0 m/S 744 mmHg 51%
    09:00 +25°C° 0 mm 1 m/S 743 mmHg 43%
    10:00 +26°C° 0 mm 1 m/S 743 mmHg 36%
    11:00 +28°C° 0 mm 2 m/S 743 mmHg 28%
    12:00 +28°C° 0 mm 2 m/S 743 mmHg 28%
    13:00 +29°C° 0 mm 2 m/S 743 mmHg 28%
    14:00 +29°C° 0 mm 3 m/S 743 mmHg 28%
    15:00 +28°C° 0 mm 3 m/S 743 mmHg 33%
    16:00 +27°C° 0 mm 3 m/S 743 mmHg 37%
    17:00 +26°C° 0 mm 3 m/S 743 mmHg 42%
    18:00 +23°C° 0 mm 2 m/S 743 mmHg 46%
    19:00 +20°C° 0 mm 2 m/S 743 mmHg 50%
    20:00 +19°C° 0 mm 1 m/S 743 mmHg 54%
    21:00 +18°C° 0 mm 1 m/S 743 mmHg 54%
    22:00 +18°C° 0 mm 1 m/S 743 mmHg 54%
    23:00 +16°C° 0 mm 1 m/S 744 mmHg 54%

    24 Mai, Freitag

    Zeit Temperatur Niederschläge Wind Luftdruck Luftfeuchtigkeit
    00:00 +16°C° 0 mm 1 m/S 744 mmHg 54%
    01:00 +15°C° 0 mm 1 m/S 744 mmHg 53%
    02:00 +15°C° 0 mm 1 m/S 744 mmHg 52%
    03:00 +15°C° 0 mm 1 m/S 744 mmHg 53%
    04:00 +15°C° 0 mm 1 m/S 744 mmHg 53%
    05:00 +15°C° 0 mm 1 m/S 744 mmHg 54%
    06:00 +18°C° 0 mm 2 m/S 744 mmHg 51%
    07:00 +21°C° 0 mm 2 m/S 745 mmHg 49%
    08:00 +25°C° 0 mm 3 m/S 745 mmHg 46%
    09:00 +26°C° 0 mm 3 m/S 745 mmHg 45%
    10:00 +28°C° 0 mm 3 m/S 744 mmHg 44%
    11:00 +29°C° 0 mm 4 m/S 744 mmHg 42%
    12:00 +30°C° 0 mm 4 m/S 744 mmHg 42%
    13:00 +30°C° 0 mm 4 m/S 743 mmHg 42%
    14:00 +30°C° 0 mm 4 m/S 743 mmHg 42%
    15:00 +29°C° 0 mm 3 m/S 743 mmHg 47%
    16:00 +28°C° 0 mm 3 m/S 743 mmHg 51%
    17:00 +27°C° 0 mm 3 m/S 743 mmHg 56%
    18:00 +24°C° 0 mm 2 m/S 743 mmHg 63%
    19:00 +21°C° 0 mm 2 m/S 744 mmHg 70%
    20:00 +19°C° 0 mm 1 m/S 744 mmHg 77%
    21:00 +19°C° 0 mm 1 m/S 744 mmHg 78%
    22:00 +18°C° 0 mm 1 m/S 744 mmHg 80%
    23:00 +16°C° 0 mm 1 m/S 745 mmHg 81%

    25 Mai, Samstag

    Zeit Temperatur Niederschläge Wind Luftdruck Luftfeuchtigkeit
    00:00 +16°C° 0 mm 1 m/S 745 mmHg 81%
    01:00 +16°C° 0 mm 1 m/S 745 mmHg 81%
    02:00 +16°C° 0 mm 1 m/S 745 mmHg 81%
    03:00 +16°C° 0 mm 1 m/S 745 mmHg 80%
    04:00 +15°C° 0 mm 0 m/S 745 mmHg 78%
    05:00 +15°C° 0 mm 0 m/S 745 mmHg 77%
    06:00 +18°C° 0 mm 0 m/S 746 mmHg 68%
    07:00 +21°C° 0 mm 0 m/S 746 mmHg 59%
    08:00 +24°C° 0 mm 0 m/S 746 mmHg 50%
    09:00 +27°C° 0 mm 1 m/S 746 mmHg 44%
    10:00 +29°C° 0 mm 1 m/S 746 mmHg 39%
    11:00 +31°C° 0 mm 1 m/S 746 mmHg 33%
    12:00 +31°C° 0 mm 1 m/S 746 mmHg 33%
    13:00 +31°C° 0 mm 1 m/S 746 mmHg 33%
    14:00 +31°C° 0 mm 2 m/S 745 mmHg 33%
    15:00 +30°C° 0 mm 2 m/S 745 mmHg 39%
    16:00 +29°C° 0 mm 1 m/S 745 mmHg 45%
    17:00 +28°C° 0 mm 1 m/S 745 mmHg 51%
    18:00 +26°C° 0 mm 1 m/S 746 mmHg 54%
    19:00 +24°C° 0 mm 1 m/S 746 mmHg 58%
    20:00 +20°C° 0 mm 0 m/S 746 mmHg 62%
    21:00 +19°C° 0 mm 0 m/S 746 mmHg 64%
    22:00 +18°C° 0 mm 0 m/S 746 mmHg 66%
    23:00 +17°C° 0 mm 0 m/S 746 mmHg 68%
    Mehr zeigen